Time,TemperatureF,DewpointF,PressureIn,WindDirection,WindDirectionDegrees,WindSpeedMPH,WindSpeedGustMPH,Humidity,HourlyPrecipIn,Conditions,Clouds,dailyrainin,SoftwareType,DateUTC
2013-05-26 00:01:00,39.5,36.0,30.43,WNW,291,0.0,-999.0,86,-99.99,,,0.00,weatherlink.com 1.10,2013-05-26 04:01:00,
2013-05-26 00:16:00,38.9,35.0,30.43,WNW,291,0.0,-999.0,86,-99.99,,,0.00,weatherlink.com 1.10,2013-05-26 04:16:00,
2013-05-26 00:31:00,38.1,35.0,30.43,WNW,291,0.0,-999.0,87,-99.99,,,0.00,weatherlink.com 1.10,2013-05-26 04:31:00,
2013-05-26 00:46:00,37.1,34.0,30.43,WNW,291,0.0,-999.0,87,-99.99,,,0.00,weatherlink.com 1.10,2013-05-26 04:46:00,
2013-05-26 01:01:00,37.1,34.0,30.43,WNW,291,0.0,-999.0,89,-99.99,,,0.00,weatherlink.com 1.10,2013-05-26 05:01:00,
2013-05-26 01:16:00,36.3,33.0,30.43,WNW,291,0.0,-999.0,88,-99.99,,,0.00,weatherlink.com 1.10,2013-05-26 05:16:00,
2013-05-26 01:31:00,36.0,33.0,30.43,WNW,291,0.0,-999.0,89,-99.99,,,0.00,weatherlink.com 1.10,2013-05-26 05:31:00,
2013-05-26 01:46:00,35.7,33.0,30.43,WNW,291,0.0,-999.0,90,-99.99,,,0.00,weatherlink.com 1.10,2013-05-26 05:46:00,
2013-05-26 02:01:00,35.8,34.0,30.43,WNW,291,0.0,-999.0,91,-99.99,,,0.00,weatherlink.com 1.10,2013-05-26 06:01:00,
2013-05-26 02:16:00,35.1,33.0,30.43,WNW,291,0.0,-999.0,90,-99.99,,,0.00,weatherlink.com 1.10,2013-05-26 06:16:00,
2013-05-26 02:31:00,34.9,33.0,30.43,WNW,291,0.0,-999.0,91,-99.99,,,0.00,weatherlink.com 1.10,2013-05-26 06:31:00,
2013-05-26 02:46:00,35.2,33.0,30.44,WNW,291,0.0,-999.0,91,-99.99,,,0.00,weatherlink.com 1.10,2013-05-26 06:46:00,
2013-05-26 03:01:00,34.8,33.0,30.44,WNW,291,0.0,-999.0,92,-99.99,,,0.00,weatherlink.com 1.10,2013-05-26 07:01:00,
2013-05-26 03:16:00,34.4,32.0,30.45,WNW,291,0.0,-999.0,92,-99.99,,,0.00,weatherlink.com 1.10,2013-05-26 07:16:00,
2013-05-26 03:32:00,33.7,32.0,30.44,WNW,291,0.0,-999.0,92,-99.99,,,0.00,weatherlink.com 1.10,2013-05-26 07:32:00,
2013-05-26 03:47:00,33.6,32.0,30.44,WNW,291,0.0,-999.0,92,-99.99,,,0.00,weatherlink.com 1.10,2013-05-26 07:47:00,
2013-05-26 04:02:00,33.0,31.0,30.44,WNW,291,0.0,-999.0,92,-99.99,,,0.00,weatherlink.com 1.10,2013-05-26 08:02:00,
2013-05-26 04:17:00,33.8,34.0,30.44,WNW,291,0.0,-999.0,100,-99.99,,,0.00,weatherlink.com 1.10,2013-05-26 08:17:00,
2013-05-26 04:32:00,33.3,32.0,30.44,WNW,291,0.0,-999.0,93,-99.99,,,0.00,weatherlink.com 1.10,2013-05-26 08:32:00,
2013-05-26 04:47:00,32.9,31.0,30.44,WNW,291,0.0,-999.0,93,-99.99,,,0.00,weatherlink.com 1.10,2013-05-26 08:47:00,
2013-05-26 05:02:00,33.2,31.0,30.45,WNW,291,0.0,-999.0,93,-99.99,,,0.00,weatherlink.com 1.10,2013-05-26 09:02:00,
2013-05-26 05:17:00,32.2,30.0,30.45,WNW,291,0.0,-999.0,93,-99.99,,,0.00,weatherlink.com 1.10,2013-05-26 09:17:00,
2013-05-26 05:32:00,31.9,30.0,30.45,WNW,291,2.0,-999.0,93,-99.99,,,0.00,weatherlink.com 1.10,2013-05-26 09:32:00,
2013-05-26 05:47:00,32.2,31.0,30.45,WNW,291,0.0,-999.0,94,-99.99,,,0.00,weatherlink.com 1.10,2013-05-26 09:47:00,
2013-05-26 06:02:00,32.8,31.0,30.46,WNW,291,1.0,-999.0,94,-99.99,,,0.00,weatherlink.com 1.10,2013-05-26 10:02:00,
2013-05-26 06:17:00,32.8,31.0,30.47,WNW,291,0.0,-999.0,94,-99.99,,,0.00,weatherlink.com 1.10,2013-05-26 10:17:00,
2013-05-26 06:32:00,33.2,32.0,30.47,WNW,291,0.0,-999.0,94,-99.99,,,0.00,weatherlink.com 1.10,2013-05-26 10:32:00,
2013-05-26 06:47:00,34.4,33.0,30.47,WNW,291,0.0,-999.0,94,-99.99,,,0.00,weatherlink.com 1.10,2013-05-26 10:47:00,
2013-05-26 07:02:00,36.1,35.0,30.49,WNW,291,0.0,-999.0,95,-99.99,,,0.00,weatherlink.com 1.10,2013-05-26 11:02:00,
2013-05-26 07:17:00,38.5,37.0,30.49,WNW,291,0.0,-999.0,95,-99.99,,,0.00,weatherlink.com 1.10,2013-05-26 11:17:00,
2013-05-26 07:32:00,40.8,39.0,30.49,WNW,291,0.0,-999.0,94,-99.99,,,0.00,weatherlink.com 1.10,2013-05-26 11:32:00,
2013-05-26 07:47:00,42.8,40.0,30.48,WNW,291,0.0,-999.0,90,-99.99,,,0.00,weatherlink.com 1.10,2013-05-26 11:47:00,
2013-05-26 08:02:00,45.0,41.0,30.47,WNW,291,0.0,-999.0,87,-99.99,,,0.00,weatherlink.com 1.10,2013-05-26 12:02:00,
2013-05-26 08:17:00,47.3,43.0,30.47,WNW,291,0.0,-999.0,85,-99.99,,,0.00,weatherlink.com 1.10,2013-05-26 12:17:00,
2013-05-26 08:32:00,50.8,43.0,30.46,ENE,61,0.0,-999.0,75,-99.99,,,0.00,weatherlink.com 1.10,2013-05-26 12:32:00,
2013-05-26 08:47:00,54.0,42.0,30.46,SE,125,1.0,-999.0,65,-99.99,,,0.00,weatherlink.com 1.10,2013-05-26 12:47:00,
2013-05-26 09:02:00,54.1,39.0,30.46,South,180,1.0,-999.0,58,-99.99,,,0.00,weatherlink.com 1.10,2013-05-26 13:02:00,
2013-05-26 09:17:00,55.8,36.0,30.47,SE,144,2.0,-999.0,47,-99.99,,,0.00,weatherlink.com 1.10,2013-05-26 13:17:00,
2013-05-26 09:32:00,56.1,35.0,30.47,SE,145,1.0,-999.0,46,-99.99,,,0.00,weatherlink.com 1.10,2013-05-26 13:32:00,
2013-05-26 09:47:00,57.7,36.0,30.47,SE,145,0.0,-999.0,44,-99.99,,,0.00,weatherlink.com 1.10,2013-05-26 13:47:00,
2013-05-26 10:02:00,56.8,35.0,30.47,SW,221,2.0,-999.0,44,-99.99,,,0.00,weatherlink.com 1.10,2013-05-26 14:02:00,
2013-05-26 10:17:00,57.0,36.0,30.47,WSW,247,2.0,-999.0,45,-99.99,,,0.00,weatherlink.com 1.10,2013-05-26 14:17:00,
2013-05-26 10:32:00,57.8,35.0,30.46,West,277,4.0,-999.0,43,-99.99,,,0.00,weatherlink.com 1.10,2013-05-26 14:32:00,
2013-05-26 10:47:00,58.4,37.0,30.46,WSW,253,2.0,-999.0,46,-99.99,,,0.00,weatherlink.com 1.10,2013-05-26 14:47:00,
2013-05-26 11:02:00,58.1,38.0,30.46,SW,225,5.0,-999.0,48,-99.99,,,0.00,weatherlink.com 1.10,2013-05-26 15:02:00,
2013-05-26 11:17:00,58.6,39.0,30.46,West,265,6.0,-999.0,48,-99.99,,,0.00,weatherlink.com 1.10,2013-05-26 15:17:00,
2013-05-26 11:32:00,58.7,37.0,30.46,WSW,251,4.0,-999.0,44,-99.99,,,0.00,weatherlink.com 1.10,2013-05-26 15:32:00,
2013-05-26 11:47:00,59.9,35.0,30.45,North,360,4.0,-999.0,39,-99.99,,,0.00,weatherlink.com 1.10,2013-05-26 15:47:00,
2013-05-26 12:02:00,60.7,37.0,30.45,WNW,298,5.0,-999.0,41,-99.99,,,0.00,weatherlink.com 1.10,2013-05-26 16:02:00,
2013-05-26 12:17:00,61.3,36.0,30.45,NNW,331,5.0,-999.0,39,-99.99,,,0.00,weatherlink.com 1.10,2013-05-26 16:17:00,
2013-05-26 12:32:00,62.4,37.0,30.45,North,350,0.0,-999.0,39,-99.99,,,0.00,weatherlink.com 1.10,2013-05-26 16:32:00,
2013-05-26 12:47:00,62.3,36.0,30.44,NNW,335,7.0,-999.0,37,-99.99,,,0.00,weatherlink.com 1.10,2013-05-26 16:47:00,
2013-05-26 13:02:00,62.7,37.0,30.43,NNW,327,3.0,-999.0,38,-99.99,,,0.00,weatherlink.com 1.10,2013-05-26 17:02:00,
2013-05-26 13:17:00,63.2,35.0,30.42,WNW,292,6.0,-999.0,35,-99.99,,,0.00,weatherlink.com 1.10,2013-05-26 17:17:00,
2013-05-26 13:32:00,64.1,36.0,30.41,West,277,7.0,-999.0,36,-99.99,,,0.00,weatherlink.com 1.10,2013-05-26 17:32:00,
2013-05-26 13:47:00,64.6,35.0,30.40,West,266,7.0,-999.0,33,-99.99,,,0.00,weatherlink.com 1.10,2013-05-26 17:47:00,
2013-05-26 14:02:00,65.4,37.0,30.40,WNW,299,6.0,-999.0,35,-99.99,,,0.00,weatherlink.com 1.10,2013-05-26 18:02:00,
2013-05-26 14:17:00,65.0,40.0,30.40,West,277,5.0,-999.0,40,-99.99,,,0.00,weatherlink.com 1.10,2013-05-26 18:17:00,
2013-05-26 14:32:00,65.1,38.0,30.40,West,278,6.0,-999.0,37,-99.99,,,0.00,weatherlink.com 1.10,2013-05-26 18:32:00,
2013-05-26 14:47:00,65.4,41.0,30.39,WNW,303,6.0,-999.0,41,-99.99,,,0.00,weatherlink.com 1.10,2013-05-26 18:47:00,
2013-05-26 15:02:00,65.7,39.0,30.39,WSW,239,6.0,-999.0,38,-99.99,,,0.00,weatherlink.com 1.10,2013-05-26 19:02:00,
2013-05-26 15:17:00,65.7,40.0,30.38,West,264,4.0,-999.0,39,-99.99,,,0.00,weatherlink.com 1.10,2013-05-26 19:17:00,
2013-05-26 15:32:00,65.7,37.0,30.37,West,268,7.0,-999.0,35,-99.99,,,0.00,weatherlink.com 1.10,2013-05-26 19:32:00,
2013-05-26 15:47:00,65.8,38.0,30.37,WNW,286,5.0,-999.0,36,-99.99,,,0.00,weatherlink.com 1.10,2013-05-26 19:47:00,
2013-05-26 16:02:00,65.9,38.0,30.37,NW,306,10.0,-999.0,36,-99.99,,,0.00,weatherlink.com 1.10,2013-05-26 20:02:00,
2013-05-26 16:18:00,65.8,41.0,30.37,WSW,243,10.0,-999.0,41,-99.99,,,0.00,weatherlink.com 1.10,2013-05-26 20:18:00,
2013-05-26 16:33:00,65.8,39.0,30.36,WNW,287,5.0,-999.0,38,-99.99,,,0.00,weatherlink.com 1.10,2013-05-26 20:33:00,
2013-05-26 16:48:00,65.9,38.0,30.36,West,264,8.0,-999.0,36,-99.99,,,0.00,weatherlink.com 1.10,2013-05-26 20:48:00,
2013-05-26 17:03:00,66.2,39.0,30.35,West,280,4.0,-999.0,37,-99.99,,,0.00,weatherlink.com 1.10,2013-05-26 21:03:00,
2013-05-26 17:18:00,66.2,40.0,30.35,West,280,5.0,-999.0,38,-99.99,,,0.00,weatherlink.com 1.10,2013-05-26 21:18:00,
2013-05-26 17:33:00,66.1,40.0,30.35,WSW,238,11.0,-999.0,39,-99.99,,,0.00,weatherlink.com 1.10,2013-05-26 21:33:00,
2013-05-26 17:48:00,66.3,40.0,30.34,WSW,253,6.0,-999.0,38,-99.99,,,0.00,weatherlink.com 1.10,2013-05-26 21:48:00,
2013-05-26 18:03:00,65.4,38.0,30.34,West,277,5.0,-999.0,37,-99.99,,,0.00,weatherlink.com 1.10,2013-05-26 22:03:00,
2013-05-26 18:18:00,65.3,40.0,30.34,WNW,299,6.0,-999.0,39,-99.99,,,0.00,weatherlink.com 1.10,2013-05-26 22:18:00,
2013-05-26 18:33:00,64.8,36.0,30.34,WSW,253,10.0,-999.0,35,-99.99,,,0.00,weatherlink.com 1.10,2013-05-26 22:33:00,
2013-05-26 18:48:00,64.6,36.0,30.33,West,271,4.0,-999.0,35,-99.99,,,0.00,weatherlink.com 1.10,2013-05-26 22:48:00,
2013-05-26 19:03:00,64.5,39.0,30.33,West,259,5.0,-999.0,39,-99.99,,,0.00,weatherlink.com 1.10,2013-05-26 23:03:00,
2013-05-26 19:18:00,64.3,37.0,30.33,WNW,298,6.0,-999.0,37,-99.99,,,0.00,weatherlink.com 1.10,2013-05-26 23:18:00,
2013-05-26 19:33:00,63.8,36.0,30.33,West,259,5.0,-999.0,35,-99.99,,,0.00,weatherlink.com 1.10,2013-05-26 23:33:00,
2013-05-26 19:48:00,63.1,38.0,30.33,NW,306,4.0,-999.0,39,-99.99,,,0.00,weatherlink.com 1.10,2013-05-26 23:48:00,
2013-05-26 20:18:00,61.8,38.0,30.32,NW,320,3.0,-999.0,41,-99.99,,,0.00,weatherlink.com 1.10,2013-05-27 00:18:00,
2013-05-26 20:33:00,60.4,36.0,30.32,NW,318,0.0,-999.0,40,-99.99,,,0.00,weatherlink.com 1.10,2013-05-27 00:33:00,
2013-05-26 20:48:00,59.0,38.0,30.32,WNW,298,0.0,-999.0,45,-99.99,,,0.00,weatherlink.com 1.10,2013-05-27 00:48:00,
2013-05-26 21:03:00,55.1,42.0,30.31,WNW,298,0.0,-999.0,62,-99.99,,,0.00,weatherlink.com 1.10,2013-05-27 01:03:00,
2013-05-26 21:18:00,52.0,40.0,30.31,WNW,298,0.0,-999.0,63,-99.99,,,0.00,weatherlink.com 1.10,2013-05-27 01:18:00,
2013-05-26 21:39:00,50.6,38.0,30.31,WNW,298,0.0,-999.0,63,-99.99,,,0.00,weatherlink.com 1.10,2013-05-27 01:39:00,
2013-05-26 21:49:00,49.7,39.0,30.32,WNW,298,0.0,-999.0,67,-99.99,,,0.00,weatherlink.com 1.10,2013-05-27 01:49:00,
2013-05-26 22:04:00,47.5,39.0,30.32,WNW,298,0.0,-999.0,73,-99.99,,,0.00,weatherlink.com 1.10,2013-05-27 02:04:00,
2013-05-26 22:19:00,45.2,39.0,30.33,WNW,298,2.0,-999.0,78,-99.99,,,0.00,weatherlink.com 1.10,2013-05-27 02:19:00,
2013-05-26 22:34:00,45.0,39.0,30.33,WNW,298,0.0,-999.0,78,-99.99,,,0.00,weatherlink.com 1.10,2013-05-27 02:34:00,
2013-05-26 22:49:00,43.9,38.0,30.33,WNW,298,0.0,-999.0,80,-99.99,,,0.00,weatherlink.com 1.10,2013-05-27 02:49:00,
2013-05-26 23:04:00,43.4,38.0,30.34,WNW,298,0.0,-999.0,82,-99.99,,,0.00,weatherlink.com 1.10,2013-05-27 03:04:00,
2013-05-26 23:34:00,41.5,37.0,30.34,WNW,298,0.0,-999.0,84,-99.99,,,0.00,weatherlink.com 1.10,2013-05-27 03:34:00,
2013-05-26 23:49:00,40.7,37.0,30.35,WNW,298,0.0,-999.0,85,-99.99,,,0.00,weatherlink.com 1.10,2013-05-27 03:49:00,